www.pogodaiklimat.ru

Погода и климат >> Архив погоды >> Индия >> Гуджарат >> Веравал


ПОГОДА в Веравале

  • Прогноз погоды в Веравале
  • Монитор погоды в Веравале

АРХИВ ПОГОДЫ в Веравале

Время (UTC), дата Ветер
(напр.,м/с)
 
Видим.   Явления Облачность Т
(С)
Тd
(С)
f
(%)
Тe
(С)
Тes
(С)
Комфортность P
(гПа)
Po
(гПа)
Тmin
(С)
Tmax
(С)
R
(мм)
R24
(мм)
S
(см)
03 10.06 З 2 4000 м мгла 4/3 600 м
[Cu Sc Ci fib]
+29.8 0.0 15 +27 +31 жарко 1003.3 1002.4 +27.8
06 10.06 З 3 10 км 4/3 600 м
[Cu Sc Ci fib]
+32.6 0.0 12 +29 +42 жарко 1003.4 1002.5
09 10.06 З 1 10 км 3/0 2000 м
[Ac trans]
+33.6 0.0 12 +30 +48 жарко 1001.7 1000.8
12 10.06 З 2 10 км 5/0 2000 м
[Ac trans]
+32.2 0.0 13 +29 +32 жарко 1000.4 999.5 +34.1
15 10.06 З 3 4000 м 8/5 450 м
[St Ac trans]
+30.2 +27.2 84 +48 +48 опасность
перегрева
1001.5 1000.6
18 10.06 ЮЗ 2 4000 м 8/3 600 м
[Sc Ac trans]
+29.4 +27.2 88 +47 +47 опасность
перегрева
1003.1 1002.2
21 10.06 ЮЗ 2 4000 м 6/1 600 м
[Sc Ac trans]
+28.8 +26.9 89 +45 +45 опасность
перегрева
1001.8 1000.9
00 11.06 З 1 4000 м 5/0 2000 м
[Ac trans Ci fib]
+28.8 +26.9 89 +45 +45 опасность
перегрева
1000.4 999.5
03 11.06 З 1 10 км 4/4 600 м
[Sc]
+30.2 0.0 14 +27 +31 жарко 1001.3 1000.4 +28.4
06 11.06 З 2 10 км 6/0 2000 м
[Ac trans]
+32.2 0.0 13 +29 +43 жарко 1002.2 1001.3
09 11.06 ЮЗ 2 10 км 8/6 750 м
[Cu hum Ac trans Ci fib]
+33.4 0.0 12 +30 +36 жарко 1000.0 999.1
12 11.06 ЮЗ 2 10 км 4/0 2000 м
[Ac trans Ci fib]
+32.4 0.0 13 +29 +33 жарко 998.6 997.7 +33.9
15 11.06 З 2 4000 м 3/0
[Ci sp]
+30.6 +27.6 84 +49 +49 опасность
перегрева
999.4 998.5
18 11.06 штиль 0 4000 м ясно +30.4 +27.4 84 +49 +49 опасность
перегрева
999.9 999.0
21 11.06 штиль 0 4000 м 1/1 600 м
[Sc]
+29.8 +26.7 83 +46 +46 опасность
перегрева
998.1 997.2
00 12.06 штиль 0 4000 м 5/0 2000 м
[Ac trans]
+29.4 +26.3 83 +45 +45 опасность
перегрева
997.3 996.4
03 12.06 В 1 10 км 8/0 2000 м
[Ac trans Ci fib]
+31.8 0.0 13 +29 +33 жарко 999.0 998.1 +29.2 11
06 12.06 В 6 10 км {морось} 9/4 600 м
[Cu Sc Ac trans Ci fib]
+31.4 0.0 13 +28 +31 жарко 1099.1 1098.1 0.0
09 12.06 В 6 10 км в посл. час дождь 9/6 600 м
[Cu Sc Ac trans]
+28.4 0.0 16 +26 +28 жарко 997.3 996.4 0.4
12 12.06 В 6 10 км {морось} 9/9 450 м
[St]
+31.8 0.0 13 +29 +29 жарко 995.2 994.3 +34.5 0.4
15 12.06 В 9 4000 м слаб. морось 5/3 450 м
[Frnb Ac trans]
+29.2 +24.6 76 +41 +41 опасность
перегрева
996.0 995.1 0.4
18 12.06 В 8 4000 м 8/8 600 м
[Sc]
+28.6 +24.0 76 +40 +40 очень
душно
995.9 995.0 0.4
21 12.06 В 8 4000 м слаб. дождь {морось} 10/5 450 м
[Frnb As op]
+27.2 +25.5 90 +40 +40 очень
душно
994.0 993.1 7
00 13.06 В 11 2000 м слаб. дождь {морось} 10/5 450 м
[Frnb As op]
+26.8 +25.4 92 +39 +39 очень
душно
992.9 992.0
03 13.06 В 10 4000 м слаб. морось {дождь} 10/6 450 м
[Frnb As trans]
+27.4 0.0 17 +25 +25 комфорт 993.5 992.6 +27.0 13
06 13.06 В 12 4000 м слаб. морось {дождь} 10/6 450 м
[Frnb As op]
+27.6 0.0 17 +25 +25 комфорт 993.2 992.3 4
09 13.06 ЮВ 16 4000 м слаб. морось 10/5 450 м
[Frnb As op]
+28.0 0.0 16 +26 +26 жарко 992.5 991.6 4
12 13.06 Ю 15 4000 м слаб. морось {дождь} 10/5 450 м
[Frnb As op]
+27.4 0.0 17 +25 +25 комфорт 993.4 992.5 +28.5 4
15 13.06 ЮВ 9 2000 м слаб. морось {дождь} 10/5 450 м
[Frnb As op]
+27.2 +24.9 87 +39 +39 очень
душно
994.7 993.8 5
18 13.06 Ю 9 4000 м дождь {морось} 10/6 450 м
[Frnb As op]
+26.4 +25.5 95 +39 +39 очень
душно
996.6 995.7 15
21 13.06 Ю 11 2000 м слаб. дождь {морось} 10/5 450 м
[Cu Sc As op]
+26.4 +26.1 98 +39 +39 очень
душно
994.8 993.9 34
00 14.06 Ю 8 2000 м слаб. морось {дождь} 10/5 450 м
[Frnb As op]
+27.2 +24.6 86 +39 +39 очень
душно
995.2 994.3 40
03 14.06 Ю 11 2000 м слаб. дождь 10/5 450 м
[Frnb As op Ci fib]
+26.6 0.0 18 +25 +25 комфорт 997.7 996.8 +26.1 52
06 14.06 Ю 5 2000 м слаб. дождь 10/5 450 м
[Frnb As op]
+27.0 0.0 17 +25 +26 комфорт 998.6 997.7 38
09 14.06 Ю 9 2000 м слаб. дождь 10/6 450 м
[Frnb As op]
+26.4 0.0 18 +25 +25 комфорт 998.6 997.7 67
12 14.06 ЮВ 8 2000 м слаб. дождь 10/6 450 м
[Frnb As op]
+28.2 0.0 16 +26 +26 жарко 996.6 995.7 +28.2 68
15 14.06 Ю 5 500 м слаб. дождь {морось} 10/6 450 м
[Frnb As op]
+26.4 +25.5 95 +39 +39 очень
душно
997.8 996.9 76
18 14.06 ЮЗ 7 500 м слаб. дождь {морось} 10/6 450 м
[Frnb As op]
+26.4 +25.5 95 +39 +39 очень
душно
999.2 998.3 80
21 14.06 Ю 7 200 м {дождь} 10/5 450 м
[Frnb As op]
+27.6 +26.2 92 +42 +42 опасность
перегрева
998.1 997.2 82
00 15.06 ЮВ 4 500 м {морось} 10/4 450 м
[Frnb As op]
+27.4 +26.6 95 +42 +42 опасность
перегрева
998.4 997.5 83
03 15.06 В 5 2000 м слаб. дождь {морось} 10/5 450 м
[Frnb As op]
+29.0 0.0 15 +26 +27 жарко 1000.4 999.5 +25.2 90
06 15.06 Ю 5 4000 м {морось} 8/8 540 м
[Cu Sc]
+30.0 0.0 14 +27 +29 жарко 1001.6 1000.7
09 15.06 Ю 6 4000 м 10/6 600 м
[Cu Sc As trans]
+30.4 0.0 14 +27 +29 жарко 1001.0 1000.1 230
12 15.06 Ю 4 4000 м 8/8 450 м
[Frnb As trans]
+29.8 0.0 15 +27 +28 жарко 1000.1 999.2 +30.6
15 15.06 Ю 5 4000 м 6/4 600 м
[Sc Ci fib]
+29.2 +27.5 91 +47 +47 опасность
перегрева
1001.9 1001.0
18 15.06 Ю 5 4000 м 9/9 600 м
[Sc]
+29.0 +27.6 92 +47 +47 опасность
перегрева
1002.9 1002.0
21 15.06 Ю 5 4000 м 9/9 600 м
[Sc]
+28.8 +27.4 92 +46 +46 опасность
перегрева
1002.8 1001.9
00 16.06 Ю 5 4000 м 5/5 600 м
[Sc]
+28.6 +27.2 92 +45 +45 опасность
перегрева
1001.9 1001.0
03 16.06 З 5 10 км 5/3 600 м
[Sc Ac trans]
+29.2 0.0 15 +27 +28 жарко 1003.7 1002.8 +28.4 0.4
06 16.06 Ю 5 10 км 4/4 600 м
[Sc]
+30.4 0.0 14 +27 +34 жарко 1004.8 1003.9
09 16.06 Ю 5 10 км 3/3 600 м
[Sc]
+31.2 0.0 13 +28 +35 жарко 1004.8 1003.9
12 16.06 Ю 5 10 км 1/1 600 м
[Sc]
+30.4 0.0 14 +27 +30 жарко 1002.5 1001.6 +31.6
15 16.06 Ю 5 4000 м 8/8 600 м
[Sc]
+29.2 +27.5 91 +47 +47 опасность
перегрева
1003.6 1002.7
18 16.06 Ю 6 4000 м 5/5 600 м
[Sc]
+29.2 +27.3 90 +47 +47 опасность
перегрева
1004.8 1003.9
21 16.06 Ю 6 4000 м 6/6 600 м
[Sc]
+29.0 +27.3 91 +47 +47 опасность
перегрева
1003.5 1002.6

 

Местоположение метеостанции Веравал (Гуджарат, Индия): широта 20.90 долгота 70.37 высота над уровнем моря 8 м.

В архиве по умолчанию представлена погода в Веравале за последнюю неделю. Архивные данные за месяц целиком и за предыдущие месяцы, начиная с января 2011 года, Вы можете получить, выбрав интересующий диапазон дат из раскрывающегося списка и нажав кнопку "Ввод!".


*Определитесь, кто Вы:
робот инопланетянин человек

Внимание! Время в таблицах - всемирное. Для получения местного времени необходимо прибавить поправку, которая равна 5.5 ч.

Смотрите также архив погоды в соседних городах и на ближайших метеорологических станциях:

Погода в Диу (Даман и Диу, Индия) (61 км)
Погода в Порбандаре (Гуджарат, Индия) (111 км)
Погода в Амрели (Гуджарат, Индия) (118 км)
Погода в Махьюве (Гуджарат, Индия) (148 км)
Погода в Раджкоте (Гуджарат, Индия) (161 км)
Погода в Дварке (Гуджарат, Индия) (211 км)
Погода в Бхавнагаре (Гуджарат, Индия) (212 км)
Погода в Охе (Гуджарат, Индия) (218 км)
Погода в Нью-Кандле (Гуджарат, Индия) (234 км)
Погода в Сурендранагаре (Гуджарат, Индия) (240 км)

Пояснения к столбцам:

Ветер - указаны скорость ветра в м/с - средняя за 10 мин, порывы в срок и между сроками (в фигурных скобках) и направление, откуда дует ветер: С - северный, СВ - северо-восточный, В - восточный, ЮВ - юго-восточный, Ю - южный, ЮЗ - юго-западный, З - западный, СЗ - северо-западный.
Видимость - горизонтальная дальность видимости в метрах или километрах. При видимости от 1 до 10 км при отсутствии осадков обычно наблюдается дымка, при ухудшении видимости до 1 км и менее - туман. В сухую погоду видимость может ухудшаться дымом, пылью или мглою.
Явления - указаны атмосферные явления, наблюдавшиеся в срок или в последний час перед сроком; фигурными скобками обозначены явления, наблюдавшиеся между сроками (за 1-3 часа до срока); квадратными скобками обозначены град или гололедные отложения с указанием их диаметра в мм.
Облачность - указаны через наклонную черту общая и нижняя облачность в баллах и высота нижней границы облаков в метрах; квадратными скобками обозначены формы облаков: Ci - перистые, Cs - перисто-слоистые, Cc - перисто-кучевые, Ac - высококучевые, As - высокослоистые, Sc - слоисто-кучевые, Ns - слоисто-дождевые, Cu - кучевые, Cb - кучево-дождевые. Подробнее классификацию облаков см. в Атласе облаков (PDF).
T - Температура воздуха - температура, измеренная на высоте 2 м над землей.
Td - Температура точки росы - температура, при понижении до которой содержащийся в воздухе водяной пар достигнет насыщения.
f - Относительная влажность воздуха - влажноcть воздуха, измеренная на высоте 2 м над землей.
Te - Эффективная температура - температура, которую ощущает одетый по сезону человек в тени. Характеристика душности погоды. При расчете учитывается влияние влажности воздуха и скорости ветра на теплоощущения человека.
Tes - Эффективная температура на солнце - температура, которую ощущает человек, с поправкой на солнечный нагрев. Характеристика знойности погоды. Зависит от высоты солнца над горизонтом, облачности и скорости ветра. Ночью, в пасмурную погоду, а также при ветре 12 м/с и более поправка равна нулю.
P - Атмосферное давление - приведенное к уровню моря атмосферное давление.
Po - Атмосферное давление - измеренное на уровне метеостанции атмосферное давление.
Tmin - Минимальная температура - минимум температуры воздуха на высоте 2 м над землей.
Tmax - Максимальная температура - максимум температуры воздуха на высоте 2 м над землей.
R - Количество осадков - Количество выпавших осадков за период времени, мм. При наведении курсора мыши на число - период времени, за который выпало указанное количество осадков.
R24 - Количество осадков - Количество выпавших осадков за 24 часа, мм.
S - Снежный покров - Высота снежного покрова, см. При наведении курсора мыши на число - состояние снежного покрова и степень покрытия местности в баллах.